Keokuk, IA

10:03 AM CDT on September 29, 2016 (GMT -0500)
Keokuk Municipal

Weather History for KEOK - November, 2012

Change the Weather History Date:

Tuesday, November 20, 2012

  Actual Average Record
Temperature  
Mean Temperature 44 °F -  
Max Temperature 48 °F 50 °F 129 °F (1997)
Min Temperature 39 °F 32 °F 10 °F (1937)
Degree Days  
Heating Degree Days 22    
Moisture  
Dew Point 40 °F    
Average Humidity 81    
Maximum Humidity 87    
Minimum Humidity 76    
Precipitation  
Precipitation 0.00 in - - ()
Sea Level Pressure  
Sea Level Pressure 30.14 in    
Wind  
Wind Speed 4 mph (NW)    
Max Wind Speed 7 mph    
Max Gust Speed -    
Visibility 2 miles    
Events      
Averages and records for this station are not official NWS values.
T = Trace of Precipitation, MM = Missing Value Source: NWS Daily Summary

Daily Weather History Graph

Daily Weather History Graph

Search for Another Location

Airport or City:

Trip Planner

Search our weather history database for the weather conditions in past years. The results will help you decide how hot, cold, wet, or windy it might be!

Date:

Astronomy

Nov. 20, 2012 Rise Set
Actual Time 6:58 AM CST 4:44 PM CST
Civil Twilight 6:28 AM CST 5:13 PM CST
Nautical Twilight 5:55 AM CST 5:47 PM CST
Astronomical Twilight 5:22 AM CST 6:19 PM CST
Moon 12:32 PM CST (11/20) No Moon Set
Length of Visible Light 10h 45m
Length of Day
9h 46m
First Quarter, 51% of the Moon is Illuminated
Nov 20
First Quarter
Nov 28
Full
Dec 6
Last Quarter
Dec 13
New
Dec 19
First Quarter

Hourly Weather History & Observations

Time (CST) Temp. Windchill Dew Point Humidity Pressure Visibility Wind Dir Wind Speed Gust Speed Precip Events Conditions
12:15 AM 48.2 °F - 41.0 °F 76% 30.07 in 10.0 mi SSW 6.9 mph - N/A   Clear
12:35 AM 48.2 °F - 41.0 °F 76% 30.06 in 10.0 mi SSW 5.8 mph - N/A   Clear
12:55 AM 46.4 °F 43.5 °F 41.0 °F 81% 30.06 in 10.0 mi SSW 5.8 mph - N/A   Clear
1:15 AM 46.4 °F 44.3 °F 41.0 °F 81% 30.06 in 7.0 mi SSW 4.6 mph - N/A   Clear
1:35 AM 46.4 °F 43.5 °F 39.2 °F 76% 30.05 in 7.0 mi SSW 5.8 mph - N/A   Clear
1:55 AM 46.4 °F 43.5 °F 39.2 °F 76% 30.06 in 7.0 mi SSW 5.8 mph - N/A   Clear
2:15 AM 46.4 °F 44.3 °F 39.2 °F 76% 30.06 in 7.0 mi SSW 4.6 mph - N/A   Clear
2:35 AM 44.6 °F 42.2 °F 39.2 °F 81% 30.06 in 5.0 mi SSW 4.6 mph - N/A   Haze
6:15 AM 39.2 °F - 35.6 °F 87% 30.07 in 0.2 mi Calm Calm - N/A   Haze
6:35 AM 39.2 °F - 35.6 °F 87% 30.08 in 0.2 mi Calm Calm - N/A   Haze
6:55 AM 41.0 °F - 35.6 °F 81% 30.09 in 0.2 mi Calm Calm - N/A   Haze
7:15 AM 42.8 °F - 37.4 °F 81% 30.09 in 0.2 mi Calm Calm - N/A   Haze
7:35 AM 42.8 °F - 37.4 °F 81% 30.11 in 0.2 mi Calm Calm - N/A   Haze
7:55 AM 42.8 °F - 37.4 °F 81% 30.11 in 0.2 mi Calm Calm - N/A   Haze
8:15 AM 42.8 °F 40.1 °F 37.4 °F 81% 30.12 in 0.2 mi North 4.6 mph - N/A   Haze
8:35 AM 42.8 °F 39.3 °F 37.4 °F 81% 30.12 in 0.2 mi North 5.8 mph - N/A   Haze
8:55 AM 42.8 °F 40.1 °F 37.4 °F 81% 30.12 in 0.2 mi North 4.6 mph - N/A   Haze
9:15 AM 42.8 °F 40.1 °F 37.4 °F 81% 30.13 in 0.2 mi North 4.6 mph - N/A   Haze
9:35 AM 42.8 °F 41.1 °F 37.4 °F 81% 30.14 in 0.2 mi North 3.5 mph - N/A   Haze
9:55 AM 44.6 °F 42.2 °F 39.2 °F 81% 30.13 in 0.2 mi North 4.6 mph - N/A   Haze
10:15 AM 44.6 °F 42.2 °F 39.2 °F 81% 30.14 in 0.2 mi North 4.6 mph - N/A   Haze
10:35 AM 44.6 °F 41.4 °F 39.2 °F 81% 30.14 in 0.2 mi North 5.8 mph - N/A   Haze
10:55 AM 46.4 °F 45.2 °F 39.2 °F 76% 30.14 in 0.2 mi North 3.5 mph - N/A   Haze
11:15 AM 46.4 °F 44.3 °F 41.0 °F 81% 30.14 in 0.2 mi North 4.6 mph - N/A   Haze
11:35 AM 46.4 °F 44.3 °F 42.8 °F 87% 30.13 in 0.2 mi NNW 4.6 mph - N/A   Haze
11:55 AM 46.4 °F 43.5 °F 42.8 °F 87% 30.13 in 0.8 mi North 5.8 mph - N/A   Haze
12:15 PM 48.2 °F - 42.8 °F 82% 30.13 in 1.0 mi NNW 4.6 mph - N/A   Haze
12:35 PM 48.2 °F - 42.8 °F 82% 30.13 in 1.2 mi North 3.5 mph - N/A   Haze
12:55 PM 48.2 °F - 42.8 °F 82% 30.13 in 1.8 mi NNE 3.5 mph - N/A   Haze
1:15 PM 48.2 °F - 42.8 °F 82% 30.14 in 2.0 mi North 3.5 mph - N/A   Haze
1:35 PM 48.2 °F - 42.8 °F 82% 30.13 in 2.0 mi WNW 4.6 mph - N/A   Haze
1:55 PM 48.2 °F - 42.8 °F 82% 30.13 in 1.8 mi NNW 4.6 mph - N/A   Haze
2:15 PM 48.2 °F - 42.8 °F 82% 30.13 in 1.8 mi WNW 5.8 mph - N/A   Haze
2:35 PM 48.2 °F - 42.8 °F 82% 30.13 in 1.8 mi NNW 4.6 mph - N/A   Haze
2:55 PM 48.2 °F - 42.8 °F 82% 30.14 in 2.0 mi NNW 4.6 mph - N/A   Haze
3:15 PM 48.2 °F - 42.8 °F 82% 30.14 in 2.0 mi NW 4.6 mph - N/A   Haze
3:35 PM 48.2 °F - 42.8 °F 82% 30.14 in 1.5 mi WNW 6.9 mph - N/A   Haze
3:55 PM 48.2 °F - 42.8 °F 82% 30.15 in 0.8 mi North 3.5 mph - N/A   Haze
4:15 PM 48.2 °F - 42.8 °F 82% 30.15 in 0.2 mi NW 5.8 mph - N/A   Haze
4:35 PM 48.2 °F - 42.8 °F 82% 30.16 in 0.2 mi Calm Calm - N/A   Haze
4:55 PM 48.2 °F - 42.8 °F 82% 30.17 in 0.2 mi NW 4.6 mph - N/A   Haze
5:15 PM 46.4 °F 45.2 °F 42.8 °F 87% 30.17 in 0.2 mi NNW 3.5 mph - N/A   Haze
5:35 PM 46.4 °F 45.2 °F 41.0 °F 81% 30.17 in 0.2 mi NW 3.5 mph - N/A   Haze
5:55 PM 46.4 °F - 41.0 °F 81% 30.18 in 0.2 mi Calm Calm - N/A   Haze
6:15 PM 46.4 °F - 41.0 °F 81% 30.19 in 0.2 mi Calm Calm - N/A   Haze
6:55 PM 46.4 °F - 41.0 °F 81% 30.19 in 0.2 mi Calm Calm - N/A   Haze
7:15 PM 46.4 °F - 39.2 °F 76% 30.19 in 0.2 mi Calm Calm - N/A   Haze
7:35 PM 46.4 °F - 39.2 °F 76% 30.19 in 0.2 mi Calm Calm - N/A   Haze
7:55 PM 44.6 °F - 39.2 °F 81% 30.19 in 0.2 mi Calm Calm - N/A   Haze
8:15 PM 44.6 °F - 39.2 °F 81% 30.20 in 0.2 mi Calm Calm - N/A   Haze
8:35 PM 44.6 °F - 39.2 °F 81% 30.21 in 0.2 mi Calm Calm - N/A   Haze
8:55 PM 44.6 °F - 39.2 °F 81% 30.21 in 0.2 mi Calm Calm - N/A   Haze
9:15 PM 44.6 °F - 39.2 °F 81% 30.21 in 0.2 mi Calm Calm - N/A   Haze
9:35 PM 44.6 °F - 39.2 °F 81% 30.21 in 0.2 mi Calm Calm - N/A   Haze
9:55 PM 44.6 °F - 39.2 °F 81% 30.21 in 0.2 mi Calm Calm - N/A   Haze
10:15 PM 42.8 °F - 37.4 °F 81% 30.21 in 0.2 mi Calm Calm - N/A   Haze
10:35 PM 42.8 °F - 37.4 °F 81% 30.20 in 0.2 mi Calm Calm - N/A   Haze
10:55 PM 42.8 °F - 37.4 °F 81% 30.20 in 0.2 mi Calm Calm - N/A   Haze
11:15 PM 42.8 °F - 37.4 °F 81% 30.21 in 0.2 mi Calm Calm - N/A   Haze
11:35 PM 42.8 °F - 37.4 °F 81% 30.20 in 0.2 mi Calm Calm - N/A   Haze
11:55 PM 42.8 °F 40.1 °F 37.4 °F 81% 30.21 in 0.2 mi SW 4.6 mph - N/A   Haze